Wind_Speed
6 7 7 7 6 5 5 5 6 6 6 7 8 8 8 8 8 8 8 8 8 8 7 7 7 7 7 7 7 7 7 7 7 7 7 7 8 8 8 7 7 7 7
4 5 6 6 5 5 5 5 5 5 5 6 7 7 8 8 8 8 8 7 7 7 7 6 6 6 6 6 6 6 6 7 7 7 7 7 7 7 7 7 7 7 7
3 4 4 5 5 4 4 4 4 4 5 5 6 6 7 7 7 7 7 6 6 6 6 6 6 5 5 5 5 5 5 6 6 6 6 7 7 7 7 7 7 6 6
2 3 3 4 4 3 3 3 4 4 4 4 5 5 6 6 6 6 6 5 5 5 5 5 5 5 5 4 4 4 5 5 5 6 6 6 6 6 6 6 6 6 6
2 2 3 3 3 3 3 3 4 4 4 4 4 5 5 5 5 5 4 4 4 5 5 4 4 5 4 4 4 4 4 5 5 5 5 5 5 5 5 5 6 5 5
1 2 2 3 3 3 3 3 4 4 5 5 4 4 5 5 4 4 3 4 4 4 4 4 4 4 4 4 4 4 4 4 4 4 4 4 4 4 4 4 5 5 4
1 2 2 3 3 3 4 4 4 5 5 5 5 5 4 4 4 3 3 3 4 4 4 4 4 4 4 3 4 3 3 3 3 3 3 3 3 3 3 3 3 3 3
2 2 2 3 3 4 4 5 5 5 6 5 5 5 4 4 4 3 3 3 3 3 3 3 3 3 3 3 3 3 3 3 3 2 2 2 2 2 2 2 2 2 2
2 2 3 3 4 4 5 5 6 6 6 6 6 5 5 4 4 3 3 2 2 2 2 2 2 2 2 3 3 3 3 3 3 2 2 2 2 1 1 1 1 1 1
3 3 3 4 4 5 5 6 6 7 7 7 7 6 6 5 5 4 3 2 2 1 2 2 2 2 2 2 2 2 2 2 2 2 2 1 1 1 1 0 0 1 1
4 4 4 4 5 5 6 7 7 7 8 8 8 7 6 6 6 5 4 3 2 2 2 2 2 1 1 1 2 2 2 2 2 2 1 1 1 1 0 0 1 2 2
5 5 5 5 5 6 6 7 8 8 9 9 9 8 7 7 6 5 4 4 3 2 2 2 2 2 1 1 2 2 1 1 1 1 1 1 1 1 1 1 2 2 2
7 7 6 6 6 6 6 7 8 9 10 10 9 9 8 7 6 6 5 5 4 3 3 2 2 2 1 1 2 2 1 1 1 1 1 0 0 0 1 1 2 2 3
8 8 7 7 7 7 7 8 9 9 10 10 10 9 9 8 7 7 7 6 5 4 3 3 2 2 2 2 2 2 1 1 1 0 0 0 1 1 1 1 2 2 2
9 9 8 7 7 7 8 9 10 9 10 11 10 10 9 9 8 8 8 8 6 4 4 4 3 3 3 2 2 2 2 1 1 0 0 0 1 1 1 1 1 2 2
10 10 9 9 8 8 8 9 10 10 10 10 11 11 10 10 10 9 9 8 7 6 5 5 4 3 3 3 2 1 2 1 0 0 0 1 1 1 1 1 1 1 1
10 10 10 9 9 9 10 10 10 10 10 10 11 11 11 11 10 10 9 9 9 8 7 6 5 4 3 3 3 2 2 2 1 1 1 1 1 1 1 1 1 1 1
11 10 10 10 9 9 10 11 11 12 11 11 12 12 12 12 11 11 11 10 10 9 8 7 6 4 4 4 3 3 2 2 1 1 2 2 2 1 1 1 1 1 1
11 11 11 12 11 10 10 10 12 13 12 13 13 13 13 13 13 13 12 11 11 11 9 8 7 6 5 5 4 4 3 3 2 2 2 2 1 1 1 1 1 1 2
12 12 13 13 13 12 11 11 11 13 13 13 13 14 14 14 14 14 14 12 12 12 11 10 9 8 7 6 6 5 4 4 3 3 3 2 2 2 2 2 1 1 2
13 14 14 15 14 14 13 12 12 13 14 15 14 14 15 15 15 15 15 14 13 13 12 11 11 10 8 7 7 6 6 5 4 4 4 3 3 2 2 2 2 2 2
15 15 15 16 15 15 14 13 12 13 13 14 15 14 15 15 15 16 16 15 15 14 13 13 12 11 10 9 8 8 7 6 6 5 5 4 4 4 3 3 3 3 3
16 16 17 17 17 16 15 15 14 13 14 15 15 16 15 16 16 16 16 16 15 15 15 14 13 12 11 11 10 9 8 8 7 6 6 5 5 5 5 5 4 4 4
17 17 17 18 18 17 16 16 15 13 14 15 16 16 16 17 16 16 16 16 17 16 16 16 15 14 13 13 12 11 10 10 9 8 8 7 7 7 7 7 6 5 5
18 18 18 19 18 17 17 17 16 14 15 16 16 16 15 16 16 17 17 16 16 17 17 17 16 16 15 14 14 13 12 11 11 10 10 10 9 9 9 9 8 8 8
18 18 18 18 17 17 16 16 15 14 14 14 14 15 14 15 16 16 17 17 17 18 18 18 17 17 17 16 16 15 14 13 13 13 12 12 11 11 10 11 11 11 10
Wind_Direction
123 125 127 126 129 130 132 134 138 140 138 133 128 124 120 114 111 106 103 100 98 96 95 94 93 93 89 86 84 85 84 83 82 83 82 80 80 79 81 85 89 88 86
132 133 136 135 133 134 141 142 147 151 146 139 131 126 123 118 113 107 102 100 98 98 99 97 95 94 91 88 87 86 85 86 83 85 86 84 82 79 80 84 90 89 88
138 143 148 145 143 145 153 157 162 167 159 148 138 133 128 123 117 110 103 100 100 100 99 97 95 96 95 93 91 91 91 89 87 87 87 87 84 82 81 84 87 88 90
152 153 163 160 154 162 171 178 182 185 177 164 152 145 138 130 121 114 107 103 103 102 99 97 96 97 99 96 96 98 95 94 95 94 92 91 90 87 86 86 91 89 89
169 159 174 177 180 189 194 199 201 199 194 185 173 162 151 141 132 123 113 109 109 105 101 96 96 94 96 100 103 105 101 98 102 97 96 95 93 90 87 90 92 89 86
209 206 209 205 209 215 218 221 221 215 210 202 192 180 166 155 146 136 122 117 113 106 102 98 94 92 98 103 110 111 109 106 107 103 102 98 95 95 91 93 91 86 83
236 240 242 235 225 223 231 238 235 229 223 216 206 193 183 169 163 152 135 123 114 108 99 92 95 93 98 109 113 112 109 106 108 105 109 105 102 101 98 94 91 85 83
241 249 244 243 235 230 234 239 238 234 230 228 220 211 197 188 185 171 154 141 126 108 100 99 103 98 99 114 118 118 116 113 105 113 112 111 106 107 111 106 92 90 87
266 252 242 246 242 236 238 238 236 235 234 235 233 224 215 209 203 192 177 163 144 120 112 116 118 108 104 121 124 122 121 118 113 114 115 113 110 111 120 132 104 95 107
305 274 256 250 246 242 242 240 240 240 238 237 235 232 231 227 223 216 206 188 171 154 138 133 133 112 110 122 132 124 119 112 112 114 112 111 102 111 111 152 258 272 272
322 308 286 264 249 245 244 244 243 243 241 238 237 239 239 238 236 231 226 220 212 198 172 163 151 127 122 138 148 142 122 110 113 109 112 90 83 91 60 341 308 297 286
330 314 307 281 259 251 247 247 246 245 242 241 243 244 242 245 245 242 232 234 231 220 206 193 176 158 156 172 175 163 145 125 119 99 101 89 74 63 9 328 308 305 297
333 321 308 290 270 259 254 250 248 252 248 244 245 243 244 246 244 244 242 242 242 235 220 207 213 190 202 201 184 190 176 147 127 142 140 124 59 11 342 336 317 303 303
337 328 320 306 290 271 260 253 253 260 254 244 242 244 245 246 248 248 251 251 252 248 230 222 241 240 230 218 194 185 185 130 130 150 148 274 292 300 295 315 335 321 309
338 332 323 310 296 277 267 262 258 261 256 248 244 243 244 247 251 255 254 255 254 246 240 234 237 234 227 222 205 188 174 148 126 133 239 299 319 304 290 292 310 320 318
338 336 329 324 310 293 278 269 264 260 253 249 247 245 246 248 253 257 258 253 250 248 244 241 236 232 226 228 228 210 190 175 125 116 271 283 312 310 299 305 325 330 312
332 332 329 321 313 301 287 273 263 257 252 252 252 250 249 250 253 256 254 251 248 246 246 246 242 242 231 235 234 231 218 218 246 266 283 302 304 299 309 316 327 327 318
325 325 327 324 316 306 291 273 261 257 255 255 254 252 252 252 255 255 253 250 248 246 247 248 246 246 237 238 237 240 245 253 261 277 284 294 305 315 327 321 315 330 339
320 320 322 324 318 310 297 273 260 259 259 254 252 251 251 252 253 253 251 249 247 245 242 244 245 245 241 240 241 245 250 257 263 269 280 289 289 292 319 337 340 348 351
313 314 316 317 313 309 299 282 264 259 261 257 254 250 246 248 251 250 248 247 244 242 241 242 244 243 244 242 242 246 251 257 257 257 269 276 274 277 302 321 328 338 348
308 310 311 313 312 309 301 293 274 264 260 255 256 251 245 247 248 245 246 244 241 240 240 241 244 245 247 243 243 246 252 258 255 256 264 272 278 277 282 298 304 311 326
305 307 307 309 308 304 299 293 280 271 261 256 255 251 247 246 247 241 241 242 241 239 238 240 242 243 242 242 244 245 248 251 254 255 260 269 275 270 273 278 281 285 303
303 304 304 306 307 302 301 294 283 274 268 262 259 251 246 244 244 242 237 238 239 238 240 239 241 240 241 243 246 248 249 249 254 254 261 268 266 267 274 284 288 279 278
301 303 303 305 304 300 297 294 289 275 269 264 259 255 245 241 242 242 239 238 238 240 241 240 239 241 243 244 247 249 250 252 254 256 264 271 272 269 271 275 278 273 270
300 301 302 303 302 298 293 291 287 274 270 265 260 255 250 244 242 240 238 236 238 240 240 240 240 243 245 246 247 248 249 253 257 261 265 268 270 270 270 270 272 272 270
297 300 302 303 301 296 293 290 282 273 270 267 263 256 251 245 240 238 239 237 238 238 239 241 243 243 245 247 248 247 249 254 258 262 265 268 270 270 272 274 275 274 271
Height
5885 5886 5887 5887 5888 5889 5890 5890 5890 5890 5890 5890 5890 5890 5890 5889 5890 5890 5890 5890 5890 5890 5891 5891 5891 5891 5891 5891 5891 5892 5892 5892 5893 5893 5893 5894 5894 5894 5894 5894 5894 5895 5895
5887 5887 5888 5888 5889 5890 5891 5891 5891 5891 5891 5891 5891 5891 5891 5891 5891 5891 5891 5891 5891 5892 5892 5892 5892 5892 5892 5893 5893 5893 5893 5893 5894 5894 5895 5895 5895 5895 5896 5896 5896 5896 5897
5887 5888 5889 5889 5890 5891 5891 5892 5892 5892 5892 5892 5892 5892 5892 5892 5892 5892 5892 5892 5893 5893 5893 5893 5893 5893 5894 5894 5894 5894 5895 5895 5895 5896 5896 5897 5897 5897 5897 5897 5898 5898 5898
5888 5889 5889 5890 5891 5892 5892 5893 5893 5893 5893 5893 5893 5893 5894 5894 5894 5894 5894 5894 5894 5894 5894 5894 5894 5894 5895 5895 5895 5895 5896 5896 5896 5897 5897 5898 5898 5898 5898 5899 5899 5900 5900
5889 5889 5890 5890 5891 5892 5893 5893 5894 5894 5894 5894 5894 5895 5895 5895 5895 5895 5895 5895 5895 5895 5895 5895 5895 5896 5896 5896 5896 5896 5897 5897 5898 5898 5899 5899 5899 5899 5900 5900 5900 5901 5901
5889 5889 5890 5891 5892 5892 5893 5894 5894 5895 5895 5895 5895 5895 5896 5896 5896 5896 5896 5896 5896 5896 5896 5896 5896 5897 5896 5897 5897 5897 5898 5898 5899 5899 5900 5900 5900 5901 5901 5901 5901 5902 5902
5889 5890 5890 5891 5892 5892 5893 5894 5894 5895 5895 5896 5896 5896 5896 5896 5897 5897 5897 5897 5897 5897 5897 5897 5897 5897 5897 5897 5898 5898 5899 5899 5900 5900 5901 5901 5901 5901 5902 5902 5902 5903 5903
5889 5890 5890 5890 5891 5892 5893 5894 5895 5895 5896 5896 5897 5897 5897 5897 5897 5897 5897 5897 5898 5898 5898 5898 5898 5898 5898 5898 5899 5899 5899 5900 5900 5901 5901 5901 5902 5902 5902 5903 5903 5904 5904
5890 5890 5890 5890 5891 5892 5893 5893 5894 5895 5896 5896 5897 5897 5897 5898 5898 5898 5898 5898 5898 5898 5899 5899 5899 5899 5899 5899 5899 5900 5900 5901 5901 5901 5902 5902 5902 5903 5903 5903 5904 5904 5904
5890 5890 5890 5890 5891 5891 5892 5893 5894 5895 5895 5896 5897 5897 5898 5898 5898 5898 5898 5899 5899 5899 5899 5900 5900 5900 5900 5900 5900 5900 5901 5901 5902 5902 5902 5902 5903 5903 5903 5904 5904 5905 5905
5890 5890 5890 5890 5890 5891 5892 5892 5893 5894 5895 5896 5897 5897 5898 5898 5898 5898 5899 5899 5899 5900 5900 5900 5900 5900 5900 5901 5901 5901 5901 5902 5902 5903 5903 5903 5903 5903 5904 5904 5904 5905 5905
5890 5889 5890 5890 5890 5890 5891 5892 5893 5893 5894 5895 5896 5897 5897 5898 5898 5898 5899 5899 5899 5900 5900 5901 5901 5901 5901 5901 5901 5901 5902 5902 5903 5903 5903 5903 5904 5904 5904 5904 5905 5905 5905
5889 5889 5889 5889 5889 5890 5890 5891 5892 5893 5893 5894 5895 5896 5897 5897 5898 5898 5899 5899 5900 5900 5901 5901 5901 5900 5901 5901 5901 5902 5902 5903 5903 5903 5903 5904 5904 5904 5904 5904 5905 5905 5905
5889 5889 5888 5888 5888 5889 5889 5890 5891 5892 5892 5893 5894 5895 5896 5897 5898 5898 5899 5899 5900 5900 5900 5901 5901 5901 5902 5902 5902 5902 5903 5903 5904 5903 5904 5904 5904 5904 5904 5904 5904 5904 5904
5889 5888 5887 5887 5887 5887 5888 5889 5890 5891 5891 5892 5893 5894 5895 5896 5897 5898 5898 5899 5900 5900 5900 5901 5901 5902 5902 5902 5902 5902 5903 5903 5904 5904 5904 5904 5904 5904 5904 5904 5904 5904 5904
5888 5887 5886 5886 5885 5886 5886 5887 5888 5889 5890 5891 5892 5893 5894 5895 5896 5896 5897 5898 5899 5899 5900 5901 5901 5902 5902 5902 5903 5903 5903 5903 5904 5904 5904 5904 5904 5904 5904 5904 5904 5904 5904
5887 5887 5886 5885 5884 5884 5885 5885 5886 5887 5888 5889 5890 5891 5892 5893 5894 5895 5896 5897 5898 5899 5900 5900 5901 5901 5902 5902 5903 5903 5903 5904 5904 5904 5904 5904 5904 5904 5904 5904 5904 5904 5904
5887 5886 5885 5884 5883 5883 5882 5883 5884 5885 5886 5887 5888 5889 5890 5891 5892 5893 5895 5896 5897 5898 5899 5900 5900 5901 5902 5902 5903 5903 5903 5903 5904 5904 5904 5904 5904 5904 5904 5904 5904 5904 5904
5886 5885 5884 5883 5882 5881 5880 5880 5881 5882 5883 5884 5886 5887 5888 5889 5890 5891 5893 5894 5895 5896 5898 5899 5900 5900 5901 5901 5902 5902 5903 5903 5903 5903 5904 5904 5904 5903 5904 5903 5904 5904 5903
5884 5883 5882 5881 5880 5879 5878 5878 5879 5880 5880 5881 5883 5884 5885 5886 5888 5889 5890 5892 5893 5895 5896 5897 5898 5899 5900 5900 5901 5901 5902 5902 5902 5903 5903 5903 5903 5903 5903 5903 5903 5903 5903
5882 5882 5880 5879 5878 5877 5876 5875 5876 5876 5877 5878 5880 5881 5882 5883 5885 5886 5888 5889 5891 5893 5894 5896 5897 5898 5899 5899 5900 5900 5901 5901 5902 5902 5902 5902 5902 5903 5903 5902 5902 5903 5903
5880 5879 5878 5877 5875 5874 5873 5873 5873 5873 5874 5875 5876 5877 5879 5880 5881 5883 5885 5887 5888 5890 5892 5894 5895 5896 5897 5898 5899 5899 5900 5901 5901 5901 5901 5901 5901 5902 5902 5902 5902 5902 5902
5877 5876 5875 5874 5873 5871 5870 5869 5869 5870 5870 5872 5873 5874 5875 5877 5878 5880 5882 5884 5886 5887 5889 5891 5892 5894 5895 5896 5897 5898 5898 5899 5899 5900 5900 5900 5900 5900 5900 5901 5901 5901 5901
5874 5873 5872 5871 5870 5868 5867 5866 5865 5866 5867 5868 5869 5870 5871 5873 5875 5876 5878 5880 5883 5885 5886 5888 5890 5891 5892 5893 5894 5895 5896 5897 5897 5898 5898 5898 5898 5898 5899 5899 5899 5899 5899
5872 5870 5870 5868 5866 5865 5864 5863 5863 5863 5864 5864 5865 5866 5868 5870 5871 5873 5875 5877 5879 5881 5883 5885 5887 5888 5889 5890 5891 5892 5893 5894 5895 5895 5896 5896 5896 5896 5896 5897 5897 5897 5897
5869 5867 5866 5865 5863 5862 5861 5860 5859 5859 5860 5860 5861 5862 5864 5866 5868 5869 5871 5873 5875 5878 5880 5882 5883 5885 5886 5887 5888 5889 5890 5891 5892 5892 5892 5893 5893 5894 5894 5894 5894 5895 5895